User: anonymous   Login
Location: Unspecified
(0.0000°N, 0.0000°E)
Time: 21:50:33
(UTC+00:00)
Language:

USA 229 DEB - Orbit

View from above orbital plane
View from above orbital plane
View from above satellite
View from above satellite

Ground track
Ground track

The orbit data is extracted from the following two-line orbital elements,

1 37391U 11014B   18260.88745946 0.00000000  00000-0  00000-0 0    01
2 37391  63.4426 291.5546 0110000   0.5826 359.4174 13.40762870    06
Epoch (UTC): 17 September 2018 21:17:56
Eccentricity: 0.0110000
inclination: 63.4426°
perigee height: 1024 km
apogee height: 1189 km
right ascension of ascending node: 291.5546°
argument of perigee: 0.5826°
revolutions per day: 13.40762870
mean anomaly at epoch: 359.4174°
orbit number at epoch: 0

The dashed part of the orbit path shows where the satellite is in the earth's shadow,  

DLR